This is the latest recevied weather packets stored in our database for station/object PA3DZX-13. If no packets are shown the sender has not sent any weather packets the latest 10 day(s).
| Time | Temp. | Humidity | Pressure | Rain* | Wind** | Luminosity | Snow |
|---|---|---|---|---|---|---|---|
| 1777542688 | 15° C | 26% | 1030.5 hPa | 0 mm | - | - | - |
| 1777541787 | 13.89° C | 27% | 1030.8 hPa | 0 mm | - | - | - |
| 1777540887 | 13.89° C | 27% | 1030.8 hPa | 0 mm | - | - | - |
| 1777539987 | 13.89° C | 28% | 1030.8 hPa | 0 mm | - | - | - |
| 1777539086 | 12.78° C | 29% | 1031 hPa | 0 mm | - | - | - |
| 1777538187 | 12.78° C | 30% | 1030.9 hPa | 0 mm | - | - | - |
| 1777537286 | 12.78° C | 31% | 1031 hPa | 0 mm | - | - | - |
| 1777536386 | 11.67° C | 31% | 1031.2 hPa | 0 mm | - | - | - |
| 1777535484 | 11.67° C | 32% | 1031.1 hPa | 0 mm | - | - | - |
| 1777534584 | 10.56° C | 33% | 1031 hPa | 0 mm | - | - | - |
| 1777533683 | 10.56° C | 33% | 1031 hPa | 0 mm | - | - | - |
| 1777532783 | 10° C | 39% | 1031 hPa | 0 mm | - | - | - |
| 1777531883 | 10° C | 40% | 1031.2 hPa | 0 mm | - | - | - |
| 1777530983 | 8.89° C | 43% | 1031.2 hPa | 0 mm | - | - | - |
| 1777530082 | 8.89° C | 45% | 1031.2 hPa | 0 mm | - | - | - |
| 1777529182 | 7.78° C | 47% | 1031 hPa | 0 mm | - | - | - |
| 1777528281 | 6.67° C | 53% | 1030.9 hPa | 0 mm | - | - | - |
| 1777527381 | 5.56° C | 57% | 1030.9 hPa | 0 mm | - | - | - |
| 1777526481 | 5° C | 60% | 1030.8 hPa | 0 mm | - | - | - |
| 1777525581 | 3.89° C | 61% | 1030.7 hPa | 0 mm | - | - | - |
| 1777524681 | 3.89° C | 63% | 1030.6 hPa | 0 mm | - | - | - |
| 1777523781 | 3.89° C | 62% | 1030.6 hPa | 0 mm | - | - | - |
| 1777522880 | 2.78° C | 64% | 1030.5 hPa | 0 mm | - | - | - |
| 1777521980 | 3.89° C | 63% | 1030.5 hPa | 0 mm | - | - | - |
| 1777521079 | 2.78° C | 73% | 1030.5 hPa | 0 mm | - | - | - |
* Rain latest hour (hover to see other rain measurements)
** Current wind speed in m/s (hover to see current wind gust speed)